Home   Weather   Aarhus   Past weeks

Flag for Denmark Past Weather in Aarhus, Denmark — Yesterday and Last 2 Weeks

Now
45 °F

Fog.


Feels Like: 39 °F
Forecast: 41 / 47 °F
Wind: 10 mph from Southwest

Location: Tirstrup

Current Time: Feb 19, 2017 at 1:17:19 pm

Latest Report: Feb 19, 2017 at 12:20 pm


Visibility: 3 mi

Pressure: 29.86 "Hg

Humidity: 93%

Dew Point: 43 °F

Location of AarhusLocation

Past Weather in Aarhus — Graph

°F

Aarhus Temperature Yesterday

Maximum temperature yesterday: 43 °F (at 2:50 pm)
Minimum temperature yesterday: 36 °F (at 12:20 am)
Average temperature yesterday: 39 °F

High & Low Weather Summary for the Past Weeks

 TemperatureHumidityPressure
High45 °F (Feb 17, 1:50 pm)100% (Feb 4, 11:20 am)30.74 "Hg (Feb 4, 11:20 am)
Low18 °F (Feb 14, 2:50 am)57% (Feb 15, 2:20 pm)29.62 "Hg (Feb 4, 11:20 am)
Average33 °F84%30.36 "Hg
* Reported Feb 4 11:20 am — Feb 19 11:50 am, Aarhus, Weather by CustomWeather, © 2017

Note: Actual official high and low records may vary slightly from our data, if they occured in-between our weather recording intervals... More about our weather records

Advertising

Aarhus Weather History for the Previous 24 Hours

Scroll right to see more
 ConditionsComfort  
Time TempWeatherWind HumidityBarometerVisibility
11:50 am
Sun, Feb 19
45 °FFog.9 mph100%29.86 "Hg2 mi
11:20 am43 °FFog.7 mph100%29.86 "Hg2 mi
10:50 am43 °FFog.8 mph100%29.86 "Hg1 mi
10:20 am43 °FPartly sunny.8 mph100%29.86 "Hg3 mi
9:50 am43 °FSprinkles. Low clouds.8 mph93%29.86 "Hg3 mi
9:20 am41 °FLight rain. Fog.8 mph100%29.86 "Hg2 mi
8:50 am41 °FFog.7 mph100%29.86 "Hg2 mi
8:20 am41 °FFog.9 mph100%29.86 "Hg1 mi
7:50 am41 °FLow clouds.8 mph100%29.86 "Hg3 mi
7:20 am41 °FLow clouds.8 mph100%29.86 "Hg4 mi
6:50 am41 °FLow clouds.6 mph100%29.86 "Hg4 mi
6:20 am41 °FSprinkles. Low clouds.10 mph100%29.86 "Hg3 mi
5:50 am41 °FSprinkles. Low clouds.8 mph100%29.89 "Hg4 mi
5:20 am41 °FLow clouds.8 mph100%29.89 "Hg4 mi
4:50 am41 °FLight rain. Low clouds.10 mph100%29.89 "Hg3 mi
4:20 am41 °FLight rain. Low clouds.9 mph93%29.89 "Hg6 mi
3:50 am41 °FLow clouds.10 mph93%29.92 "Hg4 mi
2:50 am41 °FLight rain. Fog.10 mph93%29.92 "Hg3 mi
2:20 am41 °FLow clouds.9 mph93%29.95 "Hg3 mi
1:50 am41 °FLow clouds.9 mph93%29.95 "Hg4 mi
1:20 am41 °FLow clouds.9 mph93%29.98 "HgN/A
12:50 am41 °FLow clouds.10 mph93%29.98 "Hg5 mi
12:20 am41 °FLow clouds.10 mph87%30.01 "HgN/A
11:50 pm
Sat, Feb 18
41 °FPassing clouds.10 mph87%30.01 "HgN/A
11:20 pm39 °FPassing clouds.9 mph93%30.01 "HgN/A
10:50 pm39 °FPassing clouds.7 mph93%30.01 "HgN/A
10:20 pm41 °FPassing clouds.7 mph87%30.01 "HgN/A
9:50 pm41 °FPassing clouds.6 mph87%30.04 "HgN/A
9:20 pm39 °FPassing clouds.7 mph100%30.04 "HgN/A
8:50 pm39 °FPassing clouds.9 mph100%30.04 "HgN/A
8:20 pm39 °FPassing clouds.7 mph100%30.07 "Hg6 mi
7:50 pm39 °FPartly cloudy.8 mph100%30.07 "Hg6 mi
7:20 pm39 °FPassing clouds.9 mph100%30.07 "HgN/A
6:50 pm41 °FPassing clouds.7 mph93%30.09 "HgN/A
6:20 pm41 °FLow clouds.8 mph93%30.09 "HgN/A
5:50 pm41 °FPassing clouds.7 mph93%30.09 "HgN/A
5:20 pm41 °FMore clouds than sun.6 mph93%30.12 "HgN/A
4:50 pm41 °FPartly sunny.6 mph93%30.12 "HgN/A
4:20 pm41 °FOvercast.7 mph87%30.12 "HgN/A
3:50 pm41 °FPartly sunny.7 mph87%30.12 "HgN/A
3:20 pm41 °FPartly sunny.9 mph87%30.12 "HgN/A
2:50 pm43 °FPartly sunny.8 mph87%30.15 "HgN/A
2:20 pm41 °FPartly sunny.9 mph93%30.15 "HgN/A
1:50 pm41 °FOvercast.10 mph87%30.18 "HgN/A
1:20 pm41 °FOvercast.10 mph87%30.18 "HgN/A
Weather by CustomWeather, © 2017

See weather overviewHow to use our weather pages